Washington, IN

4:32 PM EDT on August 30, 2016 (GMT -0400)
Daviess County

Weather History for KDCY - January, 2014

Change the Weather History Date:

Tuesday, January 7, 2014

  Actual Average (KLWV) Record (KLWV)
Temperature  
Mean Temperature 5 °F 31 °F  
Max Temperature 14 °F 39 °F 69 °F (2008)
Min Temperature -4 °F 23 °F -4 °F (2014)
Degree Days  
Heating Degree Days 60 34  
Month to date heating degree days 238  
Since 1 July heating degree days 2037  
Cooling Degree Days 0 0  
Month to date cooling degree days 0  
Year to date cooling degree days 0  
Moisture  
Dew Point -3 °F    
Average Humidity 67    
Maximum Humidity 79    
Minimum Humidity 57    
Precipitation  
Precipitation 0.00 in 0.09 in 0.34 in (1979)
Month to date precipitation 0.66  
Year to date precipitation 0.66  
Sea Level Pressure  
Sea Level Pressure 30.43 in    
Wind  
Wind Speed 9 mph (SSW)    
Max Wind Speed 15 mph    
Max Gust Speed 18 mph    
Visibility 10 miles    
Events      
T = Trace of Precipitation, MM = Missing Value Source: NWS Daily Summary

Daily Weather History Graph

Daily Weather History Graph

Search for Another Location

Airport or City:

Trip Planner

Search our weather history database for the weather conditions in past years. The results will help you decide how hot, cold, wet, or windy it might be!

Date:

Astronomy

Jan. 07, 2014 Rise Set
Actual Time 8:06 AM EST 5:43 PM EST
Civil Twilight 7:37 AM EST 6:12 PM EST
Nautical Twilight 7:04 AM EST 6:45 PM EST
Astronomical Twilight 6:32 AM EST 7:17 PM EST
Moon 12:00 PM EST (1/7) 12:10 AM EST (1/7)
Length of Visible Light 10h 35m
Length of Day
9h 36m
Waxing Crescent, 45% of the Moon is Illuminated
Jan 7
Waxing Crescent
Jan 7
First Quarter
Jan 15
Full
Jan 24
Last Quarter
Jan 30
New

Hourly Weather History & Observations

Time (EST) Temp. Windchill Dew Point Humidity Pressure Visibility Wind Dir Wind Speed Gust Speed Precip Events Conditions
12:15 AM -4.0 °F -22.1 °F -13.2 °F 65% 30.49 in 10.0 mi West 11.5 mph - N/A   Clear
12:35 AM -4.0 °F -21.2 °F -13.4 °F 64% 30.49 in 10.0 mi West 10.4 mph - N/A   Clear
12:55 AM -3.8 °F -19.9 °F -13.0 °F 65% 30.48 in 10.0 mi West 9.2 mph - N/A   Clear
1:15 AM -3.5 °F -21.4 °F -12.6 °F 65% 30.48 in 10.0 mi West 11.5 mph 17.3 mph N/A   Clear
1:35 AM -3.3 °F -18.2 °F -12.3 °F 65% 30.48 in 10.0 mi West 8.1 mph - N/A   Clear
1:55 AM -3.3 °F -19.3 °F -12.3 °F 65% 30.48 in 10.0 mi WSW 9.2 mph - N/A   Clear
2:15 AM -3.1 °F -19.1 °F -12.1 °F 65% 30.48 in 10.0 mi WSW 9.2 mph - N/A   Clear
2:35 AM -3.1 °F -17.9 °F -11.6 °F 67% 30.48 in 10.0 mi WSW 8.1 mph - N/A   Clear
2:55 AM -3.1 °F -17.9 °F -11.4 °F 68% 30.47 in 10.0 mi WSW 8.1 mph - N/A   Clear
3:15 AM -2.7 °F -17.5 °F -11.2 °F 67% 30.48 in 10.0 mi WSW 8.1 mph - N/A   Clear
3:35 AM -2.6 °F -16.0 °F -10.8 °F 68% 30.48 in 10.0 mi WSW 6.9 mph - N/A   Clear
3:55 AM -2.4 °F -17.1 °F -10.5 °F 68% 30.48 in 10.0 mi WSW 8.1 mph - N/A   Clear
4:15 AM -2.4 °F -15.8 °F -10.5 °F 68% 30.48 in 10.0 mi WSW 6.9 mph - N/A   Clear
4:35 AM -2.4 °F -15.8 °F -10.5 °F 68% 30.47 in 10.0 mi WSW 6.9 mph - N/A   Clear
4:55 AM -2.4 °F -17.1 °F -10.3 °F 69% 30.48 in 10.0 mi WSW 8.1 mph - N/A   Clear
5:15 AM -2.2 °F -16.8 °F -10.3 °F 68% 30.47 in 10.0 mi SW 8.1 mph - N/A   Clear
5:35 AM -1.8 °F -17.5 °F -9.8 °F 69% 30.47 in 10.0 mi SW 9.2 mph - N/A   Clear
5:55 AM -1.8 °F -17.5 °F -9.8 °F 69% 30.46 in 10.0 mi SW 9.2 mph - N/A   Clear
6:15 AM -1.7 °F -16.2 °F -9.4 °F 70% 30.46 in 10.0 mi WSW 8.1 mph - N/A   Clear
6:35 AM -1.3 °F -15.7 °F -9.4 °F 69% 30.48 in 10.0 mi WSW 8.1 mph - N/A   Clear
6:55 AM -0.9 °F -15.3 °F -9.0 °F 69% 30.48 in 10.0 mi SW 8.1 mph - N/A   Clear
7:15 AM -0.8 °F -15.1 °F -8.7 °F 69% 30.49 in 10.0 mi WSW 8.1 mph - N/A   Clear
7:35 AM -0.8 °F -15.1 °F -8.0 °F 72% 30.48 in 10.0 mi SW 8.1 mph - N/A   Clear
7:55 AM -0.8 °F -13.9 °F -7.8 °F 72% 30.48 in 10.0 mi SW 6.9 mph - N/A   Clear
8:15 AM -0.6 °F -13.6 °F -7.6 °F 72% 30.49 in 10.0 mi SW 6.9 mph - N/A   Clear
8:35 AM -0.4 °F -14.7 °F -7.6 °F 72% 30.49 in 10.0 mi SSW 8.1 mph - N/A   Clear
8:55 AM 0.7 °F -12.1 °F -6.9 °F 71% 30.50 in 10.0 mi SW 6.9 mph - N/A   Clear
9:15 AM 1.4 °F -11.3 °F -6.5 °F 69% 30.50 in 10.0 mi SSW 6.9 mph - N/A   Clear
9:35 AM 2.3 °F -11.4 °F -6.0 °F 68% 30.50 in 10.0 mi SW 8.1 mph - N/A   Clear
9:55 AM 3.2 °F -11.3 °F -5.6 °F 67% 30.50 in 10.0 mi SSW 9.2 mph - N/A   Clear
10:15 AM 3.4 °F -12.0 °F -4.0 °F 71% 30.50 in 10.0 mi South 10.4 mph - N/A   Clear
10:35 AM 4.5 °F -10.7 °F -3.3 °F 70% 30.49 in 10.0 mi South 10.4 mph - N/A   Clear
10:55 AM 4.8 °F -11.8 °F -3.6 °F 68% 30.51 in 10.0 mi SSW 12.7 mph - N/A   Clear
11:15 AM 6.6 °F -10.2 °F -3.3 °F 64% 30.52 in 10.0 mi SSW 13.8 mph - N/A   Clear
11:35 AM 7.7 °F -8.2 °F -3.5 °F 60% 30.50 in 10.0 mi SSW 12.7 mph 17.3 mph N/A   Clear
11:55 AM 8.1 °F -7.7 °F -3.1 °F 60% 30.48 in 10.0 mi SSW 12.7 mph - N/A   Clear
12:15 PM 8.8 °F -7.5 °F -3.5 °F 58% 30.47 in 10.0 mi SSW 13.8 mph 17.3 mph N/A   Clear
12:35 PM 9.7 °F -6.3 °F -2.9 °F 57% 30.46 in 10.0 mi SW 13.8 mph - N/A   Scattered Clouds
12:55 PM 10.6 °F -5.2 °F -1.5 °F 58% 30.44 in 10.0 mi SSW 13.8 mph 18.4 mph N/A   Overcast
1:15 PM 10.4 °F -3.3 °F -1.5 °F 59% 30.44 in 10.0 mi SW 10.4 mph - N/A   Overcast
1:35 PM 11.1 °F -5.1 °F -0.0 °F 61% 30.43 in 10.0 mi SW 15.0 mph - N/A   Mostly Cloudy
1:55 PM 11.8 °F -0.7 °F 0.3 °F 60% 30.42 in 10.0 mi SSW 9.2 mph 17.3 mph N/A   Scattered Clouds
2:15 PM 11.7 °F -3.2 °F 0.3 °F 60% 30.41 in 10.0 mi South 12.7 mph - N/A   Mostly Cloudy
2:35 PM 12.0 °F -2.7 °F 1.2 °F 62% 30.40 in 10.0 mi South 12.7 mph - N/A   Overcast
2:55 PM 12.6 °F -0.6 °F 1.8 °F 62% 30.40 in 10.0 mi South 10.4 mph - N/A   Overcast
3:15 PM 13.3 °F 0.3 °F 1.0 °F 58% 30.39 in 10.0 mi South 10.4 mph - N/A   Overcast
3:35 PM 14.0 °F -0.2 °F 2.5 °F 60% 30.38 in 10.0 mi South 12.7 mph - N/A   Mostly Cloudy
3:55 PM 14.0 °F 1.2 °F 1.8 °F 58% 30.36 in 10.0 mi South 10.4 mph - N/A   Scattered Clouds
4:15 PM 13.8 °F -0.5 °F 1.8 °F 59% 30.36 in 10.0 mi South 12.7 mph - N/A   Scattered Clouds
4:35 PM 13.6 °F 0.0 °F 2.5 °F 61% 30.36 in 10.0 mi SSE 11.5 mph - N/A   Mostly Cloudy
4:55 PM 13.1 °F -1.4 °F 2.7 °F 63% 30.36 in 10.0 mi SSE 12.7 mph - N/A   Mostly Cloudy
5:15 PM 13.5 °F -1.5 °F 3.2 °F 64% 30.35 in 10.0 mi South 13.8 mph - N/A   Mostly Cloudy
5:35 PM 13.8 °F 0.2 °F 3.2 °F 63% 30.34 in 10.0 mi South 11.5 mph - N/A   Overcast
5:55 PM 14.0 °F 1.2 °F 4.3 °F 65% 30.35 in 10.0 mi SSE 10.4 mph - N/A   Overcast
6:15 PM 14.4 °F 0.9 °F 4.8 °F 66% 30.35 in 10.0 mi South 11.5 mph - N/A   Overcast
6:35 PM 14.7 °F 2.9 °F 5.2 °F 66% 30.35 in 10.0 mi SSE 9.2 mph - N/A   Overcast
6:55 PM 14.7 °F 2.9 °F 5.4 °F 66% 30.36 in 10.0 mi SSE 9.2 mph - N/A   Overcast
7:15 PM 14.9 °F 3.1 °F 5.9 °F 68% 30.36 in 10.0 mi SSE 9.2 mph - N/A   Overcast
7:35 PM 14.9 °F 5.0 °F 5.9 °F 68% 30.36 in 10.0 mi SSE 6.9 mph - N/A   Overcast
7:55 PM 14.5 °F 5.7 °F 5.7 °F 68% 30.36 in 10.0 mi SSE 5.8 mph - N/A   Mostly Cloudy
8:15 PM 14.0 °F 3.9 °F 5.5 °F 69% 30.36 in 10.0 mi SSE 6.9 mph - N/A   Clear
8:35 PM 13.8 °F 3.7 °F 5.5 °F 70% 30.36 in 10.0 mi SSE 6.9 mph - N/A   Clear
8:55 PM 13.1 °F 4.0 °F 5.9 °F 73% 30.36 in 10.0 mi SE 5.8 mph - N/A   Clear
9:15 PM 13.1 °F 5.4 °F 5.9 °F 73% 30.36 in 10.0 mi SSE 4.6 mph - N/A   Clear
9:35 PM 12.7 °F 3.6 °F 6.6 °F 77% 30.36 in 10.0 mi SE 5.8 mph - N/A   Clear
9:55 PM 12.2 °F 2.9 °F 6.8 °F 79% 30.36 in 10.0 mi SE 5.8 mph - N/A   Clear
10:15 PM 12.6 °F 3.4 °F 6.6 °F 77% 30.36 in 10.0 mi SSE 5.8 mph - N/A   Clear
10:35 PM 13.1 °F 2.8 °F 6.3 °F 74% 30.36 in 10.0 mi SSE 6.9 mph - N/A   Clear
10:55 PM 13.5 °F 2.2 °F 6.4 °F 74% 30.35 in 10.0 mi SSE 8.1 mph - N/A   Clear
11:15 PM 13.6 °F 3.5 °F 6.4 °F 73% 30.35 in 10.0 mi South 6.9 mph - N/A   Clear
11:35 PM 13.8 °F 3.7 °F 6.6 °F 73% 30.34 in 10.0 mi SSE 6.9 mph - N/A   Clear
11:55 PM 14.0 °F 2.9 °F 6.6 °F 72% 30.34 in 10.0 mi SSE 8.1 mph - N/A   Clear